Weather WX

World > North America > United States > New Jersey

Highlands, New Jersey Regional Weather

Lat: 40.40N, Lon: 73.99W
Wx Zone: NJZ014
Warning FLW WEATHER ALERT - EXCESSIVE HEAT WARNING (More Info. Click Here) Warning
Feedback

Highlands, NJ Regional Weather

Expires:201907190400;;282450
ASUS41 KPHI 190312
RWRPHI

REGIONAL WEATHER ROUNDUP
NATIONAL WEATHER SERVICE MOUNT HOLLY NJ
1100 PM EDT THU JUL 18 2019

NOTE:  "FAIR" INDICATES FEW OR NO CLOUDS BELOW 12,000 FEET WITH NO
SIGNIFICANT WEATHER AND/OR OBSTRUCTIONS TO VISIBILITY.

 * = STATION DOES NOT REPORT PRECIPITATION (E.G. RAIN, SNOW, ETC.) 
        OR FOG.


NJZ001>014-190400-
NORTHERN NEW JERSEY
  
CITY           SKY/WX    TMP DP  RH WIND       PRES   REMARKS
SUSSEX         CLOUDY    72  70  93 N7        29.93R                  
ANDOVER*         N/A     74  72  93 NE3       29.93R                  
MORRISTOWN     CLOUDY    72  72 100 NE3       29.92R                  
NEWARK         CLOUDY    73  70  90 NE8       29.91R                  
TETERBORO      CLOUDY    73  68  84 E8        29.90R                  
CALDWELL       CLOUDY    74  71  91 E8        29.93R                  
SOMERVILLE     CLOUDY    74  71  91 E5        29.90R                  
ALLAIRE*       CLOUDY    73  72  96 NE8       29.92R FOG              
TOMS RIVER*    CLOUDY   N/A N/A N/A N3        29.90S                  

$$

SKY/WX - Weather  TMP - Temperature  DP - Dew Point  RH - Relative Humidity
WIND - Wind Direction/Speed PRES - Barometric Pressure VSB - Visibility
WCI - Wind Chill Index E13G22 Wind - East Wind 13 mph/Gusts of 22 mph